Probability
8 7 5 3 1 0 0 0 0 0 0 0 0 0 0 0 0 0 0 0 0 0 0 0 0 0 0 0 0 0 0 0 0 0 0 0 0 0 0 0 0 0 0
7 6 4 2 0 0 0 0 0 0 0 0 0 0 0 0 0 0 0 0 0 0 0 0 0 0 0 0 0 0 0 0 0 0 0 0 0 0 0 0 0 0 0
5 4 3 1 0 0 0 0 0 0 0 0 0 0 0 0 0 0 0 0 0 0 0 0 0 0 0 0 0 0 0 0 0 0 0 0 0 0 0 0 0 0 0
4 3 1 0 0 0 0 0 0 0 0 0 0 0 0 0 0 0 0 0 0 0 0 0 0 0 0 0 0 0 0 0 0 0 0 0 0 0 0 0 0 0 0
3 2 1 0 0 0 0 0 0 0 0 0 0 0 0 0 0 0 0 0 0 0 0 0 0 0 0 0 0 0 0 0 0 0 0 0 0 0 0 0 0 0 0
3 2 1 0 0 0 0 0 0 0 0 0 0 0 0 0 0 0 0 0 0 0 0 0 0 0 0 0 0 0 0 0 0 0 0 0 0 0 0 0 0 0 0
2 1 0 0 0 0 0 0 0 0 0 0 0 0 0 0 0 0 0 0 0 0 0 0 0 0 0 0 0 0 0 0 0 0 0 0 0 0 0 0 0 0 0
2 1 0 0 0 0 0 0 0 0 0 0 0 0 0 0 0 0 0 0 0 0 0 0 0 0 0 0 0 0 0 0 0 0 0 0 0 0 0 0 0 0 0
1 0 0 0 0 0 0 0 0 0 0 0 0 0 0 0 0 0 0 0 0 0 0 0 0 0 0 0 0 0 0 0 0 0 0 0 0 0 0 0 0 0 0
0 0 0 0 0 0 0 0 0 0 0 0 0 0 0 0 0 0 0 0 0 0 0 0 0 0 0 0 0 0 0 0 0 0 0 0 0 0 0 0 0 0 0
0 0 0 0 0 0 0 0 0 0 0 0 0 0 0 0 0 0 0 0 0 0 0 0 0 0 0 0 0 0 0 0 0 0 0 0 0 0 0 0 0 0 0
0 0 0 0 0 0 0 0 0 0 0 0 0 0 0 0 0 0 0 0 0 0 0 0 0 0 0 0 0 0 0 0 0 0 0 0 0 0 0 0 0 0 0
0 0 0 0 0 0 0 0 0 0 0 0 0 0 0 0 0 0 0 0 0 0 0 0 0 0 0 0 0 0 0 0 0 0 0 0 0 0 0 0 0 0 0
0 0 0 0 0 0 0 0 0 0 0 0 0 0 0 0 0 0 0 0 0 0 0 0 0 0 0 0 0 0 0 0 0 0 0 0 0 0 0 0 0 0 0
0 0 0 0 0 0 0 0 0 0 0 0 0 0 0 0 0 0 0 0 0 0 0 0 0 0 0 0 0 0 0 0 0 0 0 0 0 0 0 0 0 0 0
0 0 0 0 0 0 0 0 0 0 0 0 0 0 0 0 0 0 0 0 0 0 0 0 0 0 0 0 0 0 0 0 0 0 0 0 0 0 0 0 0 0 0
0 0 0 0 0 0 0 0 0 0 0 0 0 0 0 0 0 0 0 0 0 0 0 0 0 0 0 0 0 0 0 0 0 0 0 0 0 0 0 0 0 0 0
0 0 0 0 0 0 0 0 0 0 0 0 0 0 0 0 0 0 0 0 0 0 0 0 0 0 0 0 0 0 0 0 0 0 0 0 0 0 0 0 0 0 0
0 0 0 0 0 0 0 0 0 0 0 0 0 0 0 0 0 0 0 0 0 0 0 0 0 0 0 0 0 0 0 0 0 0 0 0 0 0 0 0 0 0 0
0 0 0 0 0 0 0 0 0 0 0 0 0 0 0 0 0 0 0 0 0 0 0 0 0 0 0 0 0 0 0 0 0 0 0 0 0 0 0 0 0 0 0
0 0 0 0 0 0 0 0 0 0 0 0 0 0 0 0 0 0 0 0 0 0 0 0 0 0 0 0 0 0 0 0 0 0 0 0 0 0 0 0 0 0 0
1 1 0 0 0 0 0 0 0 0 0 0 0 0 0 0 0 0 0 0 0 0 0 0 0 0 0 0 0 0 0 0 0 0 0 0 0 0 0 0 0 0 0
2 1 0 0 0 0 0 0 0 0 0 0 0 0 0 0 0 0 0 0 0 0 0 0 0 0 0 0 0 0 0 0 0 0 0 0 0 0 0 0 0 0 0
2 1 0 0 0 0 0 0 0 0 0 0 0 0 0 0 0 0 0 0 0 0 0 0 0 0 0 0 0 0 0 0 0 0 0 0 0 0 0 0 0 0 0
2 1 0 0 0 0 0 0 0 0 0 0 0 0 0 0 0 0 0 0 0 0 0 0 0 0 0 0 0 0 0 0 0 0 0 0 0 0 0 0 0 0 0
2 1 0 0 0 0 0 0 0 0 0 0 0 0 0 0 0 0 0 0 0 0 0 0 0 0 0 0 0 0 0 0 0 0 0 0 0 0 0 0 0 0 0
Wind_Speed
10 10 8 7 8 7 8 7 7 8 7 7 6 6 6 5 4 4 4 5 3 3 4 5 4 4 4 4 4 3 3 3 3 4 4 5 5 6 6 7 8 8 9
10 10 9 8 8 8 7 7 8 7 6 5 6 6 6 5 4 4 3 4 3 2 2 2 2 2 2 3 2 2 1 1 2 2 3 4 5 5 6 7 8 8 9
12 11 9 9 8 8 9 7 8 6 5 5 6 6 5 5 4 5 4 2 3 2 1 0 1 2 2 2 2 1 1 1 1 2 3 4 5 6 7 7 8 9 9
14 11 9 9 9 8 8 7 7 7 6 6 6 5 4 4 5 4 4 3 2 2 2 1 1 2 2 3 3 3 3 3 3 4 4 5 6 6 7 8 9 9 10
15 12 9 9 11 9 8 8 7 7 7 6 5 4 4 4 4 5 5 4 3 3 2 2 1 2 3 4 4 5 5 5 5 5 6 6 7 8 8 9 9 10 11
15 12 10 11 11 9 8 9 9 7 6 6 5 4 4 4 4 5 5 5 4 5 4 4 4 3 3 5 6 6 7 7 7 7 7 8 8 9 9 10 10 11 12
15 13 10 12 11 10 10 11 9 9 7 6 5 4 4 5 6 5 5 5 5 5 5 5 5 4 4 5 7 8 8 8 8 8 9 9 10 10 11 11 11 12 12
16 13 13 12 12 10 12 12 10 8 7 7 6 4 4 5 5 5 5 5 6 5 6 6 6 6 5 4 3 6 8 10 10 10 10 10 11 11 11 12 12 13 13
16 15 15 13 13 11 11 12 12 11 8 8 7 5 3 3 3 5 6 5 6 5 6 6 7 7 7 6 5 7 8 10 11 12 12 12 12 12 13 13 13 14 14
16 16 16 15 14 12 12 12 12 10 10 8 7 5 4 1 2 3 4 5 6 6 6 5 6 7 7 6 6 7 8 10 12 13 13 13 13 14 14 14 14 15 16
16 16 16 14 14 12 13 13 13 12 10 9 7 6 6 4 5 3 3 4 4 5 5 6 5 6 6 7 6 7 8 11 12 13 13 14 14 14 15 15 15 16 16
13 17 16 15 14 12 13 13 13 14 11 11 9 7 6 5 5 5 5 4 4 3 4 5 5 5 5 6 6 7 9 11 12 13 13 13 14 14 15 15 16 16 17
12 16 16 15 14 13 13 13 13 13 13 13 11 9 8 7 5 5 5 4 5 3 4 5 5 5 4 5 4 6 9 11 12 12 12 13 13 14 14 15 16 16 16
13 16 17 16 16 15 14 14 12 13 12 13 13 11 8 8 7 6 5 5 5 5 5 6 4 5 4 4 3 6 6 9 11 11 12 11 12 13 14 14 15 15 16
13 17 18 17 17 16 16 15 11 14 12 13 12 13 10 8 7 7 6 6 6 5 5 4 3 4 3 3 3 5 6 6 9 10 10 11 11 11 12 12 13 14 14
15 16 17 17 17 16 16 15 12 13 14 12 10 12 11 8 7 7 7 7 7 7 6 3 3 3 3 3 3 5 5 5 7 9 10 10 10 10 11 11 12 12 13
16 16 17 17 17 16 16 15 14 14 15 13 12 12 13 11 8 7 7 7 7 7 8 6 4 4 4 4 3 4 4 4 4 6 8 9 9 9 9 10 11 12 13
15 15 16 16 16 16 16 16 16 15 15 15 14 13 13 9 11 8 7 8 7 8 7 8 5 4 5 4 4 4 3 3 4 4 6 8 8 9 9 9 10 11 11
15 15 15 16 16 16 16 16 15 15 15 14 14 14 13 12 12 9 9 8 6 6 6 6 5 3 3 2 4 4 4 3 3 3 5 7 7 8 8 9 9 9 10
14 15 16 16 15 15 15 15 15 14 14 13 13 12 12 12 12 11 9 9 7 6 6 5 5 4 3 2 3 3 3 2 3 3 4 4 5 7 7 8 8 8 10
14 14 14 14 14 13 13 14 14 14 13 12 12 12 11 11 11 9 7 8 7 6 5 5 5 4 3 2 2 2 3 3 3 2 4 4 4 4 4 6 7 8 10
13 14 14 14 14 11 13 16 14 13 12 12 11 10 9 10 10 10 9 7 7 7 7 5 4 5 4 3 2 2 2 3 3 1 3 4 3 4 4 4 6 8 10
13 14 14 14 14 14 16 18 16 12 11 11 11 9 7 7 10 8 8 7 5 4 5 5 5 5 3 3 2 2 2 3 3 2 3 4 3 4 4 4 7 8 10
11 12 13 14 13 12 16 18 18 13 10 10 10 10 10 9 9 10 8 7 5 4 5 4 3 2 2 1 2 2 2 2 2 1 2 3 4 5 5 4 5 8 11
9 10 11 12 12 12 16 18 17 10 8 9 8 9 9 9 12 13 10 8 6 4 4 5 4 3 4 3 2 1 1 0 2 1 0 3 4 5 5 4 4 7 10
8 8 9 10 11 11 15 18 17 9 9 7 7 7 9 10 13 14 10 9 8 6 6 5 4 3 2 3 3 1 1 1 1 2 1 2 3 4 4 3 4 5 6
Wind_Direction
162 160 159 160 161 157 161 159 159 155 156 155 157 160 161 157 149 140 120 88 70 95 121 130 127 120 112 113 106 94 82 66 52 38 27 23 14 8 4 2 357 354 351
164 163 161 163 162 164 165 166 163 160 160 163 164 167 166 165 164 158 145 128 90 66 113 137 145 140 128 140 132 118 91 52 26 13 2 357 353 349 346 344 341 340 340
167 166 165 166 166 166 166 166 160 163 162 166 172 174 174 180 182 178 174 175 155 112 86 176 193 190 190 185 185 191 229 278 317 323 326 329 331 330 329 329 329 329 328
170 168 168 169 167 166 169 168 168 170 171 179 177 176 181 183 201 198 196 198 202 196 158 110 274 249 239 228 231 235 250 264 279 290 303 309 313 314 316 318 318 318 319
173 171 171 168 168 170 174 172 176 178 177 180 180 182 191 197 203 210 214 209 212 221 222 155 199 270 268 257 252 254 256 263 272 281 288 293 297 301 305 308 309 310 312
176 175 172 172 171 173 176 178 177 179 180 177 176 190 204 210 216 220 222 218 217 221 230 231 227 211 235 261 262 262 265 266 270 277 283 287 292 295 297 300 302 304 306
178 177 174 174 176 180 181 181 176 176 179 177 181 193 206 216 224 220 224 226 220 221 229 234 241 244 225 229 252 260 267 269 272 276 281 286 289 292 294 297 300 301 303
180 179 180 177 180 181 183 183 180 180 177 186 194 192 201 197 206 216 218 224 229 221 228 233 238 241 249 245 226 249 265 269 272 275 279 283 285 289 292 296 298 300 302
183 182 184 182 183 184 185 186 186 187 183 189 204 206 209 206 175 187 208 218 223 226 230 230 236 239 242 245 246 233 247 261 268 273 277 280 283 286 290 293 296 298 300
186 185 186 187 185 188 188 189 192 193 191 188 196 222 242 254 221 185 187 209 222 232 235 232 236 236 236 239 239 251 249 258 266 271 274 277 281 285 288 291 294 296 299
189 188 188 188 189 191 191 190 192 196 198 198 194 193 207 220 241 244 224 207 215 223 232 239 239 239 235 235 238 242 243 254 262 267 272 277 281 285 289 292 294 296 298
188 191 190 190 192 193 194 193 194 199 201 204 202 200 201 202 210 221 237 240 244 231 231 237 238 236 234 236 237 241 245 253 259 265 270 276 280 284 288 291 293 295 297
189 192 190 193 194 195 195 194 196 200 204 205 207 208 213 221 217 222 239 252 259 255 240 236 231 232 230 235 237 228 243 252 259 263 268 273 278 282 286 290 293 295 297
192 191 192 194 195 194 195 195 197 200 204 207 211 211 214 218 216 219 228 243 258 253 238 239 223 225 225 230 240 228 249 246 257 264 269 273 277 281 285 289 292 295 297
191 191 192 194 195 195 195 195 201 200 203 207 210 212 216 217 215 220 223 227 241 261 261 240 227 213 215 230 226 243 255 253 258 266 271 276 279 282 286 290 293 296 299
191 191 193 195 195 195 195 197 201 203 204 207 209 212 214 216 213 215 220 224 230 242 260 256 241 236 222 238 236 255 260 265 259 268 273 276 279 284 287 291 294 297 300
193 192 193 194 195 196 196 199 202 201 205 208 207 213 215 215 212 212 213 218 224 229 248 257 253 251 243 252 243 250 263 267 267 268 275 279 282 284 288 293 295 297 299
193 193 192 194 196 197 198 200 202 202 205 209 208 210 214 211 215 214 211 215 220 222 236 254 256 248 244 258 268 266 267 271 277 285 280 282 285 289 293 296 298 299 302
193 192 192 194 195 196 199 202 204 204 207 210 209 210 212 209 213 213 212 215 216 218 226 241 255 251 252 250 266 267 266 271 281 283 280 279 284 292 295 299 302 304 306
194 193 194 195 195 195 198 201 204 204 207 210 210 211 211 210 212 211 210 213 210 210 214 227 242 245 247 248 261 271 271 277 285 287 285 292 291 288 292 302 305 306 307
195 193 193 196 195 194 197 198 200 202 203 206 207 209 211 210 210 207 202 204 201 204 204 215 229 235 236 231 246 262 278 289 282 280 297 291 291 290 295 296 300 307 308
194 192 193 195 196 196 188 188 193 197 200 202 202 204 203 201 202 200 197 197 194 201 205 208 219 226 236 236 237 251 275 290 282 343 304 295 298 296 303 306 314 308 308
192 193 194 195 198 197 183 182 187 192 195 199 198 196 194 193 190 190 184 179 185 194 203 205 211 223 230 230 226 242 255 273 285 342 311 289 304 300 307 304 305 304 310
193 195 195 195 198 193 181 182 181 192 193 195 197 196 193 188 185 179 175 178 187 192 201 205 207 212 217 210 206 236 255 273 283 328 327 286 306 306 309 294 290 301 309
195 197 194 192 195 190 178 177 174 188 190 192 192 192 190 188 175 168 170 169 166 162 133 139 131 117 104 103 111 115 94 312 285 276 333 293 305 312 299 286 296 302 306
194 193 191 190 190 188 177 174 175 181 183 183 181 184 187 184 172 170 177 174 176 174 157 146 137 125 117 103 104 120 188 265 297 284 21 305 309 326 305 295 308 311 308